Location: Makanda
(37.6176°N, 89.2090°W)
Time: 00:42:25
(UTC+00:00)

Lacrosse 5 - Pass Details

Date: 23 September 2019
Orbit: 715 x 724 km, 57.0° (Epoch: 08 October)

Event Time Altitude Azimuth Distance (km) Brightness Sun altitude
Rises 00:49:13 0° 179° (S) 3,103 5.0 -11.7°
Reaches altitude 10° 00:52:16 10° 161° (SSE) 2,187 4.1 -12.3°
Maximum altitude 00:55:37 18° 119° (ESE) 1,709 3.2 -13.0°
Enters shadow 00:55:54 18° 114° (ESE) 1,713 3.2 -13.0°
